Wind_Speed
15 16 18 20 21 23 24 24 25 24 24 24 24 25 26 27 29 30 30 31 31 32 32 32 32 33 34 35 36 37 39 40 41 42 43 44 46 46 46 47 47 47 47 47
15 16 18 20 20 21 24 24 24 24 24 24 25 25 25 26 27 28 29 30 30 30 30 30 31 31 32 33 34 35 36 37 39 40 40 41 42 42 43 44 44 44 44 44
14 15 17 18 18 20 22 23 24 24 23 24 24 24 24 25 25 26 27 29 29 29 29 29 30 30 31 32 33 33 34 35 36 38 39 39 39 40 41 42 42 43 43 43
14 14 15 15 16 17 19 20 22 23 22 23 23 23 24 25 25 25 26 27 28 28 28 29 29 30 30 31 31 32 33 34 34 35 36 37 38 38 39 39 40 41 41 41
13 14 14 14 15 16 17 17 20 21 22 23 23 23 24 25 26 27 27 27 28 28 28 29 29 29 29 30 30 31 32 33 34 35 35 36 37 37 38 38 39 39 39 40
12 13 13 14 15 16 17 18 19 20 21 22 23 23 23 24 25 26 27 28 28 28 29 29 29 29 30 30 31 32 32 33 34 34 35 36 36 37 37 37 37 38 38 38
12 13 13 14 15 16 17 17 18 19 20 21 22 23 23 24 24 25 26 27 28 28 29 29 29 30 30 30 31 31 32 32 33 33 34 35 35 35 36 36 36 36 37 37
14 14 15 16 17 17 18 18 18 18 19 20 21 22 23 24 24 25 25 26 27 28 29 29 30 30 30 30 31 31 31 32 32 33 33 34 34 34 34 35 35 35 35 35
14 15 16 17 18 18 19 19 19 19 20 20 21 22 23 23 24 24 25 26 27 28 28 29 29 29 30 30 31 31 31 31 32 32 32 32 33 33 33 33 33 33 33 33
15 16 17 17 18 19 19 20 20 20 21 21 21 22 23 24 24 24 25 25 26 27 27 28 28 29 30 30 31 31 31 31 32 32 32 32 32 31 32 32 32 32 32 32
17 18 18 18 19 19 19 20 21 21 22 22 22 23 23 24 24 24 25 25 26 26 27 27 28 28 29 30 30 31 31 31 31 31 31 31 31 31 31 31 31 31 30 30
18 19 20 21 21 21 21 22 22 22 22 23 22 22 22 22 23 24 24 25 25 26 26 27 27 28 29 29 29 30 30 30 30 30 30 30 30 30 30 30 30 29 29 29
19 21 22 23 24 24 24 23 23 23 23 23 23 23 22 23 23 23 24 24 25 25 26 26 26 27 28 28 29 29 29 29 30 30 30 30 30 30 30 30 29 29 28 28
21 22 22 24 25 26 26 25 25 24 24 24 24 24 24 24 24 24 24 25 25 25 25 26 26 27 27 28 28 29 29 30 30 30 30 30 30 30 30 30 29 29 29 29
23 23 24 24 25 26 27 26 25 25 25 25 25 25 25 25 25 26 26 26 26 26 26 27 27 27 28 28 28 29 29 29 30 30 30 30 30 30 30 30 30 30 30 30
24 25 25 25 25 25 26 26 25 25 25 25 25 25 25 25 25 26 26 26 26 27 27 27 27 27 28 28 29 29 29 29 29 29 30 30 30 30 30 30 30 30 30 30
25 25 26 25 24 24 25 26 26 25 25 25 25 25 25 25 25 26 26 27 27 27 27 27 27 27 27 27 28 28 29 29 30 30 30 30 30 30 30 30 30 30 31 31
26 26 26 25 23 23 23 24 26 26 26 26 26 26 26 26 26 26 27 27 27 27 27 27 27 27 28 28 28 28 29 29 30 30 31 31 31 31 31 31 31 32 32 32
27 27 26 25 23 21 21 22 24 25 26 26 27 27 27 27 27 27 27 27 27 28 28 28 28 28 28 29 29 29 29 29 30 30 30 31 31 31 31 31 32 32 32 33
29 28 26 25 23 21 20 21 22 24 25 26 27 27 28 28 28 28 28 27 27 28 28 29 29 29 29 29 29 29 30 30 30 30 30 31 31 31 31 31 32 32 33 33
30 28 27 25 23 22 20 21 21 22 24 25 26 27 28 28 29 29 29 29 29 29 29 30 30 30 30 30 30 30 30 30 30 31 31 31 31 31 31 32 33 33 33 33
31 29 27 25 24 23 22 22 22 22 23 25 26 27 28 28 29 29 29 29 30 30 30 30 30 30 30 30 30 30 30 30 30 30 31 31 31 31 32 32 33 34 34 35
31 29 28 26 25 24 23 23 24 24 24 25 25 27 28 28 28 29 29 29 30 30 30 30 30 30 30 30 31 31 31 31 31 31 31 31 32 32 32 33 33 33 34 34
31 30 29 27 26 25 25 25 25 25 25 25 26 26 27 28 28 29 29 29 29 30 30 30 30 30 30 30 31 31 31 31 31 31 31 32 32 32 33 33 33 33 34 34
32 30 30 29 28 27 26 26 25 25 26 26 26 27 27 28 28 28 28 28 28 28 28 29 29 30 30 30 31 31 31 32 32 32 32 32 33 33 33 33 34 34 34 34
33 31 30 30 29 28 27 26 26 26 26 25 25 25 26 26 26 26 27 27 27 28 28 28 29 30 30 30 30 31 31 32 32 32 32 33 33 33 33 33 33 33 33 33
32 30 29 28 28 27 27 27 26 26 26 25 25 25 25 26 26 26 26 26 26 27 27 28 28 28 29 29 30 30 31 32 32 33 33 33 33 34 34 34 34 34 34 34
Wind_Direction
263 256 251 248 246 243 242 244 244 244 246 247 246 244 240 238 235 235 236 237 238 240 242 243 244 246 247 248 249 250 251 254 256 257 260 261 263 264 266 267 268 269 270 271
266 259 253 251 249 246 245 246 247 246 247 246 246 242 239 237 236 235 236 237 238 239 241 242 244 246 247 249 250 252 253 255 257 258 260 262 264 265 266 267 268 269 270 271
271 263 263 258 252 250 249 248 248 247 243 243 243 241 239 238 236 236 236 237 238 239 241 243 245 247 248 250 252 254 256 257 258 260 261 263 265 266 267 268 268 269 269 270
277 269 266 263 257 252 251 251 249 246 245 245 242 240 239 238 236 237 237 238 239 241 242 244 246 248 249 251 253 255 257 259 260 261 263 264 266 267 268 269 270 270 270 271
277 272 275 268 263 258 257 256 253 249 245 245 241 240 240 239 239 240 241 241 241 242 244 246 247 249 250 252 254 256 258 260 261 263 265 267 268 268 270 271 271 271 271 271
276 270 276 271 264 261 259 257 254 252 249 246 244 242 242 242 243 244 244 244 244 245 246 247 249 250 252 254 256 257 259 261 263 265 266 267 269 269 270 271 272 272 273 273
273 270 271 269 267 263 261 258 257 253 251 249 246 247 246 246 246 246 246 246 246 246 247 248 250 252 254 255 257 259 261 263 265 267 268 268 269 270 271 271 272 273 273 273
275 275 272 268 267 264 261 260 259 253 250 250 249 249 249 248 248 248 248 247 247 247 248 250 252 253 254 256 257 260 262 265 266 268 269 269 269 271 272 272 272 272 273 273
277 275 272 269 267 264 261 259 258 255 252 253 252 250 249 249 250 249 250 250 250 250 251 251 252 254 255 256 258 260 263 265 267 268 269 270 270 271 272 272 272 272 273 273
281 273 270 269 268 267 263 258 256 257 255 255 254 252 251 251 250 250 251 252 252 252 252 252 254 255 256 258 259 261 263 265 266 268 268 269 269 270 271 272 273 274 273 273
283 275 268 268 269 267 265 261 257 257 256 255 255 254 252 252 251 251 252 252 253 253 253 254 255 256 258 260 261 262 263 265 266 267 268 269 270 272 273 273 274 274 273 273
289 281 275 271 268 268 266 263 260 257 255 255 254 254 254 254 252 251 253 253 254 254 254 254 256 257 258 259 261 262 264 265 266 267 268 270 271 272 273 273 273 273 273 273
294 286 279 275 271 268 266 264 262 258 255 253 251 252 253 253 254 254 254 255 255 255 255 256 256 258 259 260 262 263 264 265 266 267 269 270 271 272 273 273 272 272 273 273
298 292 286 279 274 270 266 264 262 258 256 254 253 253 254 255 255 255 256 257 257 257 257 258 258 259 260 262 263 264 265 266 266 268 269 270 271 272 272 273 272 271 272 272
301 296 291 285 279 272 266 264 261 257 255 256 256 255 256 257 257 257 257 258 259 259 260 261 261 262 263 264 265 265 266 267 268 269 270 271 271 272 272 272 272 272 272 272
303 299 295 290 284 276 267 262 259 256 255 255 255 256 256 258 258 258 259 259 259 259 260 261 262 263 265 265 266 266 267 267 268 269 270 271 272 272 272 271 271 272 272 272
306 303 300 296 290 281 270 261 258 256 255 254 254 255 256 257 258 259 259 259 259 260 261 261 262 263 265 266 266 267 267 268 269 269 270 271 272 272 272 271 271 271 271 271
308 305 303 301 296 286 273 262 257 256 255 253 253 255 256 258 259 261 262 262 261 261 262 263 263 264 264 266 268 269 269 269 270 271 271 271 272 272 272 272 272 272 272 272
307 305 303 302 299 290 277 267 260 258 256 254 255 256 257 260 261 262 263 263 263 263 263 264 265 265 266 267 268 269 270 271 272 272 272 272 272 272 273 273 273 273 273 273
306 304 302 300 297 290 280 270 264 260 258 257 257 257 259 260 262 262 263 263 264 264 265 266 266 267 268 268 269 269 270 272 273 273 274 273 273 273 273 274 274 274 275 275
304 302 300 298 295 289 281 272 267 264 262 260 259 260 261 262 263 263 264 265 265 266 266 267 267 267 268 268 270 270 271 272 273 273 274 274 274 274 274 274 274 275 275 275
303 299 297 294 291 287 281 275 270 268 266 265 263 262 263 263 264 265 265 265 266 267 267 267 266 266 268 268 269 270 271 272 272 273 274 274 274 275 275 276 276 275 275 275
303 298 294 292 289 286 281 276 273 271 270 269 267 266 265 264 265 265 266 266 266 267 267 267 266 266 267 268 269 269 271 272 273 274 275 275 275 275 275 276 277 277 276 276
303 299 293 290 288 284 281 278 274 272 271 271 270 269 268 267 267 267 267 267 267 268 268 268 267 267 268 269 269 269 270 271 273 274 275 275 276 276 276 277 277 277 277 277
301 297 292 288 286 282 279 277 275 273 272 273 272 271 271 269 268 268 268 268 268 268 268 268 268 267 268 268 269 270 271 272 273 274 275 275 276 277 278 278 278 278 278 278
299 295 292 288 285 281 278 276 275 275 274 273 273 272 272 271 269 268 268 269 268 268 268 268 269 269 269 269 270 271 273 274 275 275 276 277 277 278 278 279 279 279 279 279
298 295 291 288 285 282 279 277 276 276 274 272 272 272 271 271 271 270 270 270 270 270 269 270 270 271 271 271 272 273 273 274 275 276 277 278 278 278 279 279 279 279 280 280
Height
5606 5607 5608 5609 5611 5612 5614 5616 5618 5621 5623 5626 5628 5630 5633 5636 5640 5644 5648 5652 5656 5659 5662 5666 5669 5672 5674 5677 5680 5682 5685 5687 5689 5690 5692 5693 5694 5695 5696 5696 5697 5698 5698 5698
5602 5603 5603 5604 5606 5607 5609 5611 5613 5615 5618 5621 5622 5624 5627 5630 5634 5637 5641 5645 5648 5652 5655 5658 5661 5664 5666 5669 5671 5673 5675 5677 5679 5680 5681 5682 5683 5684 5684 5685 5686 5686 5687 5687
5598 5599 5599 5601 5602 5603 5604 5606 5608 5610 5614 5615 5617 5619 5622 5625 5628 5631 5635 5638 5641 5645 5648 5651 5653 5656 5658 5661 5663 5665 5666 5668 5669 5670 5671 5672 5673 5673 5674 5674 5675 5675 5675 5675
5594 5596 5596 5599 5598 5599 5600 5602 5603 5605 5607 5609 5612 5614 5617 5619 5622 5625 5629 5632 5635 5638 5641 5643 5646 5648 5650 5652 5654 5656 5657 5659 5660 5661 5662 5662 5663 5663 5663 5664 5664 5664 5664 5664
5591 5592 5592 5594 5594 5595 5596 5598 5599 5600 5602 5604 5606 5609 5611 5614 5616 5619 5622 5625 5628 5631 5633 5636 5638 5640 5642 5644 5646 5647 5648 5650 5651 5651 5652 5652 5653 5653 5653 5653 5653 5653 5653 5653
5588 5588 5589 5591 5591 5591 5593 5593 5594 5595 5597 5599 5601 5604 5607 5608 5610 5613 5615 5618 5620 5623 5626 5628 5630 5632 5634 5635 5637 5638 5639 5641 5641 5642 5642 5643 5643 5643 5643 5643 5643 5643 5642 5642
5585 5585 5586 5587 5586 5588 5590 5590 5590 5591 5592 5594 5596 5598 5601 5602 5604 5606 5608 5611 5613 5615 5618 5620 5622 5624 5625 5627 5628 5630 5631 5631 5632 5632 5633 5633 5633 5633 5633 5633 5633 5632 5632 5632
5583 5583 5585 5583 5583 5584 5584 5584 5585 5585 5587 5589 5590 5592 5594 5596 5598 5600 5601 5604 5606 5608 5610 5612 5613 5615 5617 5618 5620 5621 5622 5622 5623 5623 5623 5623 5624 5624 5623 5623 5623 5623 5622 5622
5580 5581 5579 5578 5578 5579 5579 5579 5580 5581 5582 5583 5585 5586 5588 5589 5591 5593 5595 5596 5598 5600 5602 5604 5605 5607 5608 5610 5611 5612 5613 5613 5614 5614 5614 5614 5614 5614 5614 5614 5614 5613 5613 5613
5575 5575 5574 5574 5573 5574 5574 5574 5575 5576 5577 5578 5579 5580 5582 5583 5584 5586 5587 5589 5591 5592 5594 5596 5597 5599 5600 5601 5602 5603 5604 5604 5605 5605 5605 5605 5605 5605 5605 5605 5604 5604 5603 5603
5571 5570 5570 5570 5569 5569 5569 5569 5569 5570 5571 5572 5573 5574 5575 5576 5578 5579 5580 5582 5583 5585 5586 5588 5589 5590 5592 5593 5593 5594 5595 5595 5596 5596 5596 5596 5596 5596 5596 5596 5595 5595 5594 5594
5566 5565 5565 5564 5563 5563 5563 5563 5563 5564 5565 5566 5567 5568 5569 5570 5571 5572 5573 5575 5576 5577 5578 5580 5581 5582 5583 5584 5585 5586 5586 5587 5587 5587 5587 5588 5587 5587 5587 5587 5586 5586 5585 5585
5560 5559 5558 5557 5556 5556 5556 5556 5557 5557 5558 5559 5560 5561 5562 5563 5564 5565 5566 5568 5569 5570 5571 5572 5573 5574 5575 5576 5576 5577 5578 5578 5578 5579 5579 5579 5579 5578 5578 5578 5577 5577 5577 5577
5554 5553 5552 5550 5549 5548 5548 5548 5549 5549 5551 5552 5553 5554 5555 5556 5557 5558 5559 5560 5561 5562 5563 5564 5565 5566 5567 5567 5568 5568 5569 5569 5569 5570 5570 5570 5570 5569 5569 5569 5569 5568 5568 5568
5548 5546 5544 5543 5541 5540 5539 5540 5541 5542 5543 5544 5545 5546 5548 5549 5550 5551 5552 5552 5553 5554 5555 5556 5557 5558 5558 5559 5559 5560 5560 5560 5560 5560 5561 5561 5560 5560 5560 5560 5560 5559 5559 5559
5542 5539 5537 5535 5533 5532 5531 5532 5533 5534 5535 5536 5537 5538 5540 5541 5542 5543 5544 5544 5545 5546 5547 5548 5548 5549 5549 5550 5550 5551 5551 5551 5551 5551 5551 5551 5551 5551 5551 5550 5550 5550 5550 5549
5535 5532 5529 5527 5524 5523 5522 5523 5525 5526 5527 5529 5530 5531 5532 5533 5534 5535 5535 5536 5537 5538 5538 5539 5540 5540 5541 5541 5541 5542 5542 5542 5542 5542 5542 5542 5541 5541 5541 5541 5541 5540 5540 5539
5528 5525 5522 5519 5516 5514 5514 5515 5516 5518 5519 5520 5521 5522 5524 5525 5526 5526 5527 5528 5528 5529 5530 5530 5531 5531 5532 5532 5532 5533 5533 5533 5533 5532 5532 5532 5531 5531 5531 5531 5530 5530 5530 5529
5522 5519 5516 5513 5510 5508 5507 5507 5508 5509 5511 5512 5513 5514 5515 5516 5517 5518 5518 5519 5519 5520 5521 5521 5522 5522 5523 5523 5523 5523 5523 5523 5523 5523 5522 5522 5521 5521 5521 5520 5520 5520 5519 5519
5515 5512 5509 5506 5504 5502 5501 5500 5501 5502 5502 5503 5505 5506 5507 5507 5508 5509 5509 5510 5510 5511 5511 5512 5512 5513 5513 5514 5514 5514 5513 5513 5513 5513 5512 5512 5511 5511 5511 5510 5510 5509 5509 5508
5508 5505 5502 5500 5498 5496 5495 5494 5494 5494 5495 5495 5496 5497 5498 5499 5499 5500 5500 5501 5501 5501 5502 5502 5503 5503 5503 5504 5504 5504 5504 5503 5503 5503 5502 5502 5501 5501 5500 5500 5499 5498 5498 5497
5500 5498 5495 5493 5491 5489 5488 5487 5487 5487 5487 5487 5488 5488 5489 5489 5490 5490 5491 5491 5492 5492 5492 5492 5492 5493 5493 5494 5494 5494 5494 5493 5493 5493 5492 5492 5491 5490 5490 5489 5488 5487 5486 5486
5492 5489 5487 5485 5484 5482 5481 5480 5480 5479 5479 5479 5479 5479 5480 5480 5480 5481 5481 5482 5481 5482 5482 5482 5482 5483 5483 5483 5484 5484 5484 5483 5483 5483 5482 5481 5481 5480 5479 5478 5477 5476 5475 5474
5484 5481 5479 5477 5475 5474 5473 5472 5471 5471 5471 5471 5471 5470 5470 5471 5471 5471 5471 5471 5471 5471 5471 5471 5472 5472 5473 5473 5473 5473 5473 5473 5473 5472 5471 5471 5470 5469 5468 5467 5466 5465 5464 5463
5475 5473 5470 5469 5467 5466 5465 5464 5463 5462 5462 5462 5462 5461 5461 5461 5461 5461 5461 5461 5461 5461 5461 5461 5462 5462 5462 5462 5463 5463 5462 5462 5462 5461 5461 5460 5459 5458 5457 5456 5455 5454 5452 5451
5465 5463 5461 5459 5458 5456 5455 5455 5454 5454 5453 5453 5453 5452 5452 5451 5451 5451 5451 5451 5451 5451 5451 5451 5452 5452 5452 5452 5452 5452 5452 5451 5451 5450 5450 5449 5448 5447 5446 5445 5443 5442 5441 5439
5456 5453 5451 5450 5448 5447 5446 5445 5445 5444 5444 5444 5444 5443 5443 5443 5442 5442 5442 5442 5442 5442 5442 5442 5442 5442 5442 5442 5442 5442 5441 5441 5440 5439 5438 5437 5436 5435 5434 5433 5432 5430 5429 5428